ICEYE-X11 (48918 NORAD) Tracking and Keplerian Element Data

This shows tracking and keplerian element data for the satellite.

Feedback or suggestion? Click here.




ElementValue
Catalog48918
NameICEYE-X11
Epoch Orbit1395
Epoch Day269.12395515
Epoch Year2021
RAAN36.6565
Inclination97.5235
Eccentricity0.0011131
Argument of Perigee288.0672
Mean Anonmoly244.75
Mean Motion15.13033233
Decay Rate1.553E-05
L11 48918U 21059AR 21269.12395515 .00001553 00000-0 91488-4 0 9996
L22 48918 97.5235 36.6565 0011131 288.0672 244.7500 15.13033233 13958

Live tracking and technical data element details for ICEYE-X11 (NORAD 48918). ICEYE-X11 can be tracked NOW for your location showing map with azimuth and elevation plus other details from your city location.

Track the satellite on the map from your city or location and see movement details for azimuth, elevation, latitude, longitude, range, height, and movement on the map or in text.







IsCatalogInMostPopularTable: catalog: 48918, numindb: 15
Update: records affected: 1



GetName: 48918 ICEYE-X11

Hit Count: updated at: Sun, 26 Sep 2021 16:52:53 GMT